Tracking 25734 objects as of 29-May-2022
HD Live streaming from Space Station
objects crossing your sky now

CZ-4 DEB

Track CZ-4 DEB now!
10-day predictions


NORAD ID: 32473
Int'l Code: 2007-042C
Perigee: 656.1 km
Apogee: 811.3 km
Inclination: 98.1 °
Period: 99.3 minutes
Semi major axis: 7104 km
RCS: 0.0013 m2 (small)
Launch date: September 19, 2007
Source: People's Republic of China (PRC)
Launch site: Taiyaun Space Center, China (TSC)

Note: This is SATELLITE DEBRIS
aabbcc
Your satellite tracking list
Your tracking list is empty




NASA's NSSDC Master Catalog

Two Line Element Set (TLE):
1 32473U 07042C   22148.36748737  .00002073  00000-0  50998-3 0  9990
2 32473  98.0751 196.4821 0109203 162.5180 197.9821 14.49712717763297
Source of the keplerian elements: AFSPC